Regional Weather Roundup
Issued by NWS

Home | Current Version | Previous Version | Graphics & Text | Print | Product List | Glossary On
Versions: 1 2 3 4 5 6 7 8 9 10 11 12 13 14 15 16 17 18 19 20 21 22 23 24 25 26 27
000
ASUS45 KPSR 210510
RWRAZ

ARIZONA HOURLY REGIONAL WEATHER ROUNDUP
NATIONAL WEATHER SERVICE PHOENIX AZ
1000 PM MST MON FEB 20 2017

NOTE: FAIR INDICATES FEW OR NO CLOUDS BELOW 12,000 FEET WITH NO
SIGNIFICANT WEATHER AND/OR OBSTRUCTIONS TO VISIBILITY.

AZZ001>003-036-210600-
NORTHWEST ARIZONA

CITY           SKY/WX    TMP DP  RH WIND       PRES   REMARKS
BULLHEAD CITY  CLOUDY    63  52  67 S5        30.27S
KINGMAN        CLEAR     46  41  82 SE9       30.32S
$$

AZZ004>008-015-016-018-210600-
NORTH CENTRAL ARIZONA

CITY           SKY/WX    TMP DP  RH WIND       PRES   REMARKS
GRAND CANYON   MOCLDY    40  39  97 SW6       30.38R
WILLIAMS       PTCLDY    36  34  93 SE6       30.39R WCI  31
PRESCOTT       CLEAR     43  40  89 CALM      30.35S
FLAGSTAFF      CLEAR     33  32  96 SW3       30.38R
PAYSON         CLEAR     43  39  87 CALM      30.39R
PAGE           PTCLDY    51  36  56 S3        30.26S
$$

AZZ009>014-017-210600-
NORTHEAST ARIZONA

CITY           SKY/WX    TMP DP  RH WIND       PRES   REMARKS
WINSLOW        CLEAR     45  38  76 SW7       30.33R
SAINT JOHNS    CLEAR     40  29  64 SW3       30.34R
WINDOW ROCK    CLEAR     37  31  78 CALM      30.36R
SHOW LOW       CLEAR     39  36  87 S9        30.38R WCI  33
$$

AZZ023-210600-
GREATER PHOENIX AREA

CITY           SKY/WX    TMP DP  RH WIND       PRES   REMARKS
PHOENIX        CLEAR     60  51  72 CALM      30.28R
BUCKEYE        CLEAR     57  57 100 N8        30.29R
LUKE AFB       CLEAR     56  56  97 NW6       30.28R
DEER VALLEY    CLEAR     56  52  86 CALM      30.28R
SCOTTSDALE     CLEAR     59  49  69 CALM      30.26R
MESA-GATEWAY   CLEAR     57  52  82 CALM      30.29R
$$

AZZ027-028-210600-
SOUTHWEST MARICOPA COUNTY AND PINAL COUNTY

CITY           SKY/WX    TMP DP  RH WIND       PRES   REMARKS
CASA GRANDE    NOT AVBL
GILA BEND      FAIR      60  53  80 CALM      30.27R
$$

AZZ503-504-507>509-210600-
SOUTHEAST ARIZONA

CITY           SKY/WX    TMP DP  RH WIND       PRES   REMARKS
TUCSON         CLEAR     56  45  66 W5        30.31R
DAVIS-MONTHAN  CLEAR     54  46  73 CALM      30.30R
NOGALES        CLEAR     50  39  66 N7        30.30R
SIERRA VISTA   CLEAR     46  38  73 W8        30.34R
DOUGLAS        CLEAR     45  39  79 N9        30.31R
SAFFORD        CLEAR     53  42  66 W10       30.28R
$$

AZZ020-021-025-026-031-210600-
SOUTHWEST ARIZONA

CITY           SKY/WX    TMP DP  RH WIND       PRES   REMARKS
YUMA           CLEAR     61  54  77 CALM      30.27R
$$

CAZ031-033-041-043-047-048-061-210600-
SOUTHERN CALIFORNIA

CITY           SKY/WX    TMP DP  RH WIND       PRES   REMARKS
DOWNTOWN L.A.  CLOUDY    60  54  80 CALM      30.30R
L.A. AIRPORT   CLOUDY    59  55  87 E3        30.31R
SAN DIEGO      PTCLDY    60  52  74 N3        30.31S
BURBANK        CLOUDY    56  54  93 CALM      30.31R FOG
ONTARIO        CLOUDY    56  53  90 W5        30.30R
RIVERSIDE      CLOUDY    56  54  93 W3        30.30S
PALM SPRINGS   CLEAR     62  54  74 CALM      30.27S
EL CENTRO NAS  CLEAR     60  51  72 N9        30.28R
IMPERIAL       CLEAR     62  53  72 N6        30.26R
BLYTHE         CLEAR     63  55  75 S7        30.27R
NEEDLES        CLEAR     61  53  75 SW6       30.27R
$$

NVZ020-UTZ003-210600-
SOUTHERN NEVADA-UTAH

CITY           SKY/WX    TMP DP  RH WIND       PRES   REMARKS
LAS VEGAS      PTCLDY    61  45  55 S9G17     30.17S
SALT LAKE CITY MOCLDY    52  38  58 S26G35    30.00R
$$

NMZ009-TXZ055-210600-
NEW MEXICO-WEST TEXAS

CITY           SKY/WX    TMP DP  RH WIND       PRES   REMARKS
ALBUQUERQUE    CLEAR     50  29  44 NW3       30.29R
EL PASO        CLEAR     55  27  34 CALM      30.24R
$$


........................KEY........................
SKY/WX - SKY CONDITION/WEATHER
TMP    - TEMPERATURE IN FAHRENHEIT
DP     - DEW POINT IN FAHRENHEIT
RH     - RELATIVE HUMIDITY IN PERCENT
WIND   - DIRECTION AND SPEED IN MILES PER HOUR (MPH)
VRB    - VARIABLE WIND DIRECTION
PRES   - MEAN SEA LEVEL PRESSURE IN INCHES OF MERCURY
         F - FALLING PRESSURE   R - RISING PRESSURE
         S - STEADY PRESSURE
VSB    - VISIBILITY IN MILES
HX     - HEAT INDEX IN FAHRENHEIT
WCI    - WIND CHILL INDEX IN FAHRENHEIT
TC     - TEMPERATURE IN CELSIUS WHICH IS ALSO KNOWN AS
         TEMPERATURE IN CENTIGRADE
AFB    - AIR FORCE BASE
         LUKE AFB IS LUKE AIR FORCE BASE
         DAVIS-MONTHAN IS DAVIS-MONTHAN AIR FORCE BASE
NAS    - NAVAL AIR STATION
         EL CENTRO NAS IS EL CENTRO NAVAL AIR STATION
N/A    - NOT AVAILABLE





USA.gov is the U.S. government's official web portal to all federal, state and local government web resources and services.